owner,sensor,date,latitude,longitude,vertical_datum,sea_water_practical_salinity,qcFlag 
ENP,ioos.station.NOAA.NDBC:TPEF1:1,2016-05-01T00:00:00Z,25.4100,-80.9640,1.5,7.16,1111122 
ENP,ioos.station.NOAA.NDBC:TPEF1:1,2016-05-01T03:00:00Z,25.4100,-80.9640,1.5,7.56,1111122 
ENP,ioos.station.NOAA.NDBC:TPEF1:1,2016-05-01T07:00:00Z,25.4100,-80.9640,1.5,4.28,1111122 
ENP,ioos.station.NOAA.NDBC:TPEF1:1,2016-05-01T08:00:00Z,25.4100,-80.9640,1.5,3.94,1111122 
ENP,ioos.station.NOAA.NDBC:TPEF1:1,2016-05-01T10:00:00Z,25.4100,-80.9640,1.5,3.88,1111122 
ENP,ioos.station.NOAA.NDBC:TPEF1:1,2016-05-01T11:00:00Z,25.4100,-80.9640,1.5,3.88,1111122 
ENP,ioos.station.NOAA.NDBC:TPEF1:1,2016-05-01T12:00:00Z,25.4100,-80.9640,1.5,3.88,1111122 
ENP,ioos.station.NOAA.NDBC:TPEF1:1,2016-05-01T13:00:00Z,25.4100,-80.9640,1.5,4.78,1111122 
ENP,ioos.station.NOAA.NDBC:TPEF1:1,2016-05-01T14:00:00Z,25.4100,-80.9640,1.5,6.68,1111122 
ENP,ioos.station.NOAA.NDBC:TPEF1:1,2016-05-01T15:00:00Z,25.4100,-80.9640,1.5,6.84,1111122 
ENP,ioos.station.NOAA.NDBC:TPEF1:1,2016-05-01T16:00:00Z,25.4100,-80.9640,1.5,6.88,1111122 
ENP,ioos.station.NOAA.NDBC:TPEF1:1,2016-05-01T17:00:00Z,25.4100,-80.9640,1.5,6.9,1111122 
ENP,ioos.station.NOAA.NDBC:TPEF1:1,2016-05-01T18:00:00Z,25.4100,-80.9640,1.5,6.38,1111122 
ENP,ioos.station.NOAA.NDBC:TPEF1:1,2016-05-01T19:00:00Z,25.4100,-80.9640,1.5,6.05,1111122 
ENP,ioos.station.NOAA.NDBC:TPEF1:1,2016-05-01T20:00:00Z,25.4100,-80.9640,1.5,5.89,1111122 
ENP,ioos.station.NOAA.NDBC:TPEF1:1,2016-05-01T21:00:00Z,25.4100,-80.9640,1.5,4.99,1111122 
ENP,ioos.station.NOAA.NDBC:TPEF1:1,2016-05-01T22:00:00Z,25.4100,-80.9640,1.5,4.16,1111122 
ENP,ioos.station.NOAA.NDBC:TPEF1:1,2016-05-01T23:00:00Z,25.4100,-80.9640,1.5,4.07,1111122 
ENP,ioos.station.NOAA.NDBC:TPEF1:1,2016-05-02T00:00:00Z,25.4100,-80.9640,1.5,5.65,1111122 
ENP,ioos.station.NOAA.NDBC:TPEF1:1,2016-05-02T02:00:00Z,25.4100,-80.9640,1.5,6.88,1111122 
ENP,ioos.station.NOAA.NDBC:TPEF1:1,2016-05-02T03:00:00Z,25.4100,-80.9640,1.5,7.02,1111122 
ENP,ioos.station.NOAA.NDBC:TPEF1:1,2016-05-02T05:00:00Z,25.4100,-80.9640,1.5,6.92,1111122 
ENP,ioos.station.NOAA.NDBC:TPEF1:1,2016-05-02T06:00:00Z,25.4100,-80.9640,1.5,6.88,1111122 
ENP,ioos.station.NOAA.NDBC:TPEF1:1,2016-05-02T07:00:00Z,25.4100,-80.9640,1.5,6.74,1111122 
ENP,ioos.station.NOAA.NDBC:TPEF1:1,2016-05-02T08:00:00Z,25.4100,-80.9640,1.5,6.39,1111122 
ENP,ioos.station.NOAA.NDBC:TPEF1:1,2016-05-02T09:00:00Z,25.4100,-80.9640,1.5,5.68,1111122 
ENP,ioos.station.NOAA.NDBC:TPEF1:1,2016-05-02T10:00:00Z,25.4100,-80.9640,1.5,4.65,1111122 
ENP,ioos.station.NOAA.NDBC:TPEF1:1,2016-05-02T11:00:00Z,25.4100,-80.9640,1.5,4.09,1111122 
ENP,ioos.station.NOAA.NDBC:TPEF1:1,2016-05-02T12:00:00Z,25.4100,-80.9640,1.5,3.97,1111122 
ENP,ioos.station.NOAA.NDBC:TPEF1:1,2016-05-02T14:00:00Z,25.4100,-80.9640,1.5,6.34,1111122 
ENP,ioos.station.NOAA.NDBC:TPEF1:1,2016-05-02T15:00:00Z,25.4100,-80.9640,1.5,6.66,1111122 
ENP,ioos.station.NOAA.NDBC:TPEF1:1,2016-05-02T16:00:00Z,25.4100,-80.9640,1.5,6.69,1111122 
ENP,ioos.station.NOAA.NDBC:TPEF1:1,2016-05-02T17:00:00Z,25.4100,-80.9640,1.5,6.7,1111122 
ENP,ioos.station.NOAA.NDBC:TPEF1:1,2016-05-02T18:00:00Z,25.4100,-80.9640,1.5,6.7,1111122 
ENP,ioos.station.NOAA.NDBC:TPEF1:1,2016-05-02T19:00:00Z,25.4100,-80.9640,1.5,6.69,1111122 
ENP,ioos.station.NOAA.NDBC:TPEF1:1,2016-05-02T20:00:00Z,25.4100,-80.9640,1.5,6.67,1111122 
ENP,ioos.station.NOAA.NDBC:TPEF1:1,2016-05-02T21:00:00Z,25.4100,-80.9640,1.5,6.66,1111122 
ENP,ioos.station.NOAA.NDBC:TPEF1:1,2016-05-02T22:00:00Z,25.4100,-80.9640,1.5,5.92,1111122 
ENP,ioos.station.NOAA.NDBC:TPEF1:1,2016-05-02T23:00:00Z,25.4100,-80.9640,1.5,4.97,1111122 
ENP,ioos.station.NOAA.NDBC:TPEF1:1,2016-05-03T00:00:00Z,25.4100,-80.9640,1.5,4.3,1111122 
ENP,ioos.station.NOAA.NDBC:TPEF1:1,2016-05-03T02:00:00Z,25.4100,-80.9640,1.5,6.48,1111122 
ENP,ioos.station.NOAA.NDBC:TPEF1:1,2016-05-03T03:00:00Z,25.4100,-80.9640,1.5,6.67,1111122 
ENP,ioos.station.NOAA.NDBC:TPEF1:1,2016-05-03T05:00:00Z,25.4100,-80.9640,1.5,6.69,1111122 
ENP,ioos.station.NOAA.NDBC:TPEF1:1,2016-05-03T06:00:00Z,25.4100,-80.9640,1.5,6.65,1111122 
ENP,ioos.station.NOAA.NDBC:TPEF1:1,2016-05-03T07:00:00Z,25.4100,-80.9640,1.5,6.63,1111122 
ENP,ioos.station.NOAA.NDBC:TPEF1:1,2016-05-03T08:00:00Z,25.4100,-80.9640,1.5,6.61,1111122 
ENP,ioos.station.NOAA.NDBC:TPEF1:1,2016-05-03T09:00:00Z,25.4100,-80.9640,1.5,6.56,1111122 
ENP,ioos.station.NOAA.NDBC:TPEF1:1,2016-05-03T10:00:00Z,25.4100,-80.9640,1.5,6.48,1111122 
ENP,ioos.station.NOAA.NDBC:TPEF1:1,2016-05-03T11:00:00Z,25.4100,-80.9640,1.5,5.91,1111122 
ENP,ioos.station.NOAA.NDBC:TPEF1:1,2016-05-03T12:00:00Z,25.4100,-80.9640,1.5,4.9,1111122 
ENP,ioos.station.NOAA.NDBC:TPEF1:1,2016-05-03T13:00:00Z,25.4100,-80.9640,1.5,4.65,1111122 
ENP,ioos.station.NOAA.NDBC:TPEF1:1,2016-05-03T14:00:00Z,25.4100,-80.9640,1.5,6.16,1111122 
ENP,ioos.station.NOAA.NDBC:TPEF1:1,2016-05-03T15:00:00Z,25.4100,-80.9640,1.5,6.37,1111122 
ENP,ioos.station.NOAA.NDBC:TPEF1:1,2016-05-03T16:00:00Z,25.4100,-80.9640,1.5,6.38,1111122 
ENP,ioos.station.NOAA.NDBC:TPEF1:1,2016-05-03T17:00:00Z,25.4100,-80.9640,1.5,6.41,1111122 
ENP,ioos.station.NOAA.NDBC:TPEF1:1,2016-05-03T18:00:00Z,25.4100,-80.9640,1.5,6.39,1111122 
ENP,ioos.station.NOAA.NDBC:TPEF1:1,2016-05-03T20:00:00Z,25.4100,-80.9640,1.5,6.4,1111122 
ENP,ioos.station.NOAA.NDBC:TPEF1:1,2016-05-03T21:00:00Z,25.4100,-80.9640,1.5,6.38,1111122 
ENP,ioos.station.NOAA.NDBC:TPEF1:1,2016-05-03T22:00:00Z,25.4100,-80.9640,1.5,6.38,1111122 
ENP,ioos.station.NOAA.NDBC:TPEF1:1,2016-05-03T23:00:00Z,25.4100,-80.9640,1.5,6.38,1111122 
ENP,ioos.station.NOAA.NDBC:TPEF1:1,2016-05-04T00:00:00Z,25.4100,-80.9640,1.5,6.38,1111122 
ENP,ioos.station.NOAA.NDBC:TPEF1:1,2016-05-04T02:00:00Z,25.4100,-80.9640,1.5,6.2,1111122 
ENP,ioos.station.NOAA.NDBC:TPEF1:1,2016-05-04T03:00:00Z,25.4100,-80.9640,1.5,6.39,1111122 
ENP,ioos.station.NOAA.NDBC:TPEF1:1,2016-05-04T05:00:00Z,25.4100,-80.9640,1.5,6.39,1111122 
ENP,ioos.station.NOAA.NDBC:TPEF1:1,2016-05-04T06:00:00Z,25.4100,-80.9640,1.5,6.37,1111122 
ENP,ioos.station.NOAA.NDBC:TPEF1:1,2016-05-04T07:00:00Z,25.4100,-80.9640,1.5,6.35,1111122 
ENP,ioos.station.NOAA.NDBC:TPEF1:1,2016-05-04T08:00:00Z,25.4100,-80.9640,1.5,6.34,1111122 
ENP,ioos.station.NOAA.NDBC:TPEF1:1,2016-05-04T09:00:00Z,25.4100,-80.9640,1.5,6.34,1111122 
ENP,ioos.station.NOAA.NDBC:TPEF1:1,2016-05-04T10:00:00Z,25.4100,-80.9640,1.5,6.31,1111122 
ENP,ioos.station.NOAA.NDBC:TPEF1:1,2016-05-04T11:00:00Z,25.4100,-80.9640,1.5,6.3,1111122 
ENP,ioos.station.NOAA.NDBC:TPEF1:1,2016-05-04T12:00:00Z,25.4100,-80.9640,1.5,6.29,1111122 
ENP,ioos.station.NOAA.NDBC:TPEF1:1,2016-05-04T13:00:00Z,25.4100,-80.9640,1.5,6.28,1111122 
ENP,ioos.station.NOAA.NDBC:TPEF1:1,2016-05-04T14:00:00Z,25.4100,-80.9640,1.5,6.21,1111122 
ENP,ioos.station.NOAA.NDBC:TPEF1:1,2016-05-04T15:00:00Z,25.4100,-80.9640,1.5,6.27,1111122 
ENP,ioos.station.NOAA.NDBC:TPEF1:1,2016-05-04T16:00:00Z,25.4100,-80.9640,1.5,6.27,1111122 
ENP,ioos.station.NOAA.NDBC:TPEF1:1,2016-05-04T17:00:00Z,25.4100,-80.9640,1.5,6.28,1111122 
ENP,ioos.station.NOAA.NDBC:TPEF1:1,2016-05-04T18:00:00Z,25.4100,-80.9640,1.5,6.29,1111122 
ENP,ioos.station.NOAA.NDBC:TPEF1:1,2016-05-04T19:00:00Z,25.4100,-80.9640,1.5,6.31,1111122 
ENP,ioos.station.NOAA.NDBC:TPEF1:1,2016-05-04T20:00:00Z,25.4100,-80.9640,1.5,6.32,1111122 
ENP,ioos.station.NOAA.NDBC:TPEF1:1,2016-05-04T21:00:00Z,25.4100,-80.9640,1.5,6.33,1111122 
ENP,ioos.station.NOAA.NDBC:TPEF1:1,2016-05-04T22:00:00Z,25.4100,-80.9640,1.5,6.35,1111122 
ENP,ioos.station.NOAA.NDBC:TPEF1:1,2016-05-04T23:00:00Z,25.4100,-80.9640,1.5,6.37,1111122 
ENP,ioos.station.NOAA.NDBC:TPEF1:1,2016-05-05T00:00:00Z,25.4100,-80.9640,1.5,6.39,1111122 
ENP,ioos.station.NOAA.NDBC:TPEF1:1,2016-05-05T03:00:00Z,25.4100,-80.9640,1.5,6.42,1111122 
ENP,ioos.station.NOAA.NDBC:TPEF1:1,2016-05-05T06:00:00Z,25.4100,-80.9640,1.5,6.48,1111122 
ENP,ioos.station.NOAA.NDBC:TPEF1:1,2016-05-05T07:00:00Z,25.4100,-80.9640,1.5,6.5,1111122 
ENP,ioos.station.NOAA.NDBC:TPEF1:1,2016-05-05T08:00:00Z,25.4100,-80.9640,1.5,6.54,1111122 
ENP,ioos.station.NOAA.NDBC:TPEF1:1,2016-05-05T10:00:00Z,25.4100,-80.9640,1.5,6.59,1111122 
ENP,ioos.station.NOAA.NDBC:TPEF1:1,2016-05-05T11:00:00Z,25.4100,-80.9640,1.5,6.56,1111122 
ENP,ioos.station.NOAA.NDBC:TPEF1:1,2016-05-05T12:00:00Z,25.4100,-80.9640,1.5,6.54,1111122 
ENP,ioos.station.NOAA.NDBC:TPEF1:1,2016-05-05T13:00:00Z,25.4100,-80.9640,1.5,6.5,1111122 
ENP,ioos.station.NOAA.NDBC:TPEF1:1,2016-05-05T14:00:00Z,25.4100,-80.9640,1.5,6.49,1111122 
ENP,ioos.station.NOAA.NDBC:TPEF1:1,2016-05-05T15:00:00Z,25.4100,-80.9640,1.5,6.51,1111122 
ENP,ioos.station.NOAA.NDBC:TPEF1:1,2016-05-05T16:00:00Z,25.4100,-80.9640,1.5,6.5,1111122 
ENP,ioos.station.NOAA.NDBC:TPEF1:1,2016-05-05T17:00:00Z,25.4100,-80.9640,1.5,6.56,1111122 
ENP,ioos.station.NOAA.NDBC:TPEF1:1,2016-05-05T18:00:00Z,25.4100,-80.9640,1.5,6.73,1111122 
ENP,ioos.station.NOAA.NDBC:TPEF1:1,2016-05-05T19:00:00Z,25.4100,-80.9640,1.5,6.92,1111122 
ENP,ioos.station.NOAA.NDBC:TPEF1:1,2016-05-05T20:00:00Z,25.4100,-80.9640,1.5,7.35,1111122 
ENP,ioos.station.NOAA.NDBC:TPEF1:1,2016-05-05T21:00:00Z,25.4100,-80.9640,1.5,7.55,1111122 
ENP,ioos.station.NOAA.NDBC:TPEF1:1,2016-05-05T22:00:00Z,25.4100,-80.9640,1.5,7.16,1111122 
ENP,ioos.station.NOAA.NDBC:TPEF1:1,2016-05-05T23:00:00Z,25.4100,-80.9640,1.5,6.83,1111122 
ENP,ioos.station.NOAA.NDBC:TPEF1:1,2016-05-06T00:00:00Z,25.4100,-80.9640,1.5,6.66,1111122 
ENP,ioos.station.NOAA.NDBC:TPEF1:1,2016-05-06T03:00:00Z,25.4100,-80.9640,1.5,6.53,1111122 
ENP,ioos.station.NOAA.NDBC:TPEF1:1,2016-05-06T04:00:00Z,25.4100,-80.9640,1.5,6.51,1111122 
ENP,ioos.station.NOAA.NDBC:TPEF1:1,2016-05-06T06:00:00Z,25.4100,-80.9640,1.5,6.6,1111122 
ENP,ioos.station.NOAA.NDBC:TPEF1:1,2016-05-06T07:00:00Z,25.4100,-80.9640,1.5,6.84,1111122 
ENP,ioos.station.NOAA.NDBC:TPEF1:1,2016-05-06T08:00:00Z,25.4100,-80.9640,1.5,7.26,1111122 
ENP,ioos.station.NOAA.NDBC:TPEF1:1,2016-05-06T09:00:00Z,25.4100,-80.9640,1.5,7.72,1111122 
ENP,ioos.station.NOAA.NDBC:TPEF1:1,2016-05-06T10:00:00Z,25.4100,-80.9640,1.5,7.84,1111122 
ENP,ioos.station.NOAA.NDBC:TPEF1:1,2016-05-06T11:00:00Z,25.4100,-80.9640,1.5,7.19,1111122 
ENP,ioos.station.NOAA.NDBC:TPEF1:1,2016-05-06T12:00:00Z,25.4100,-80.9640,1.5,7.2,1111122 
ENP,ioos.station.NOAA.NDBC:TPEF1:1,2016-05-06T13:00:00Z,25.4100,-80.9640,1.5,8.45,1111122 
ENP,ioos.station.NOAA.NDBC:TPEF1:1,2016-05-06T14:00:00Z,25.4100,-80.9640,1.5,8.58,1111122 
ENP,ioos.station.NOAA.NDBC:TPEF1:1,2016-05-06T15:00:00Z,25.4100,-80.9640,1.5,8.26,1111122 
ENP,ioos.station.NOAA.NDBC:TPEF1:1,2016-05-06T16:00:00Z,25.4100,-80.9640,1.5,8.89,1111122 
ENP,ioos.station.NOAA.NDBC:TPEF1:1,2016-05-06T17:00:00Z,25.4100,-80.9640,1.5,9.78,1111122 
ENP,ioos.station.NOAA.NDBC:TPEF1:1,2016-05-06T18:00:00Z,25.4100,-80.9640,1.5,10.48,1111122 
ENP,ioos.station.NOAA.NDBC:TPEF1:1,2016-05-06T19:00:00Z,25.4100,-80.9640,1.5,10.61,1111122 
ENP,ioos.station.NOAA.NDBC:TPEF1:1,2016-05-06T20:00:00Z,25.4100,-80.9640,1.5,10.74,1111122 
ENP,ioos.station.NOAA.NDBC:TPEF1:1,2016-05-06T21:00:00Z,25.4100,-80.9640,1.5,10.87,1111122 
ENP,ioos.station.NOAA.NDBC:TPEF1:1,2016-05-06T22:00:00Z,25.4100,-80.9640,1.5,11.0,1111122 
ENP,ioos.station.NOAA.NDBC:TPEF1:1,2016-05-06T23:00:00Z,25.4100,-80.9640,1.5,10.87,1111122 
ENP,ioos.station.NOAA.NDBC:TPEF1:1,2016-05-07T00:00:00Z,25.4100,-80.9640,1.5,10.55,1111122 
ENP,ioos.station.NOAA.NDBC:TPEF1:1,2016-05-07T03:00:00Z,25.4100,-80.9640,1.5,9.15,1111122 
ENP,ioos.station.NOAA.NDBC:TPEF1:1,2016-05-07T04:00:00Z,25.4100,-80.9640,1.5,8.41,1111122 
ENP,ioos.station.NOAA.NDBC:TPEF1:1,2016-05-07T06:00:00Z,25.4100,-80.9640,1.5,9.91,1111122 
ENP,ioos.station.NOAA.NDBC:TPEF1:1,2016-05-07T07:00:00Z,25.4100,-80.9640,1.5,10.16,1111122 
ENP,ioos.station.NOAA.NDBC:TPEF1:1,2016-05-07T08:00:00Z,25.4100,-80.9640,1.5,10.55,1111122 
ENP,ioos.station.NOAA.NDBC:TPEF1:1,2016-05-07T09:00:00Z,25.4100,-80.9640,1.5,10.68,1111122 
ENP,ioos.station.NOAA.NDBC:TPEF1:1,2016-05-07T10:00:00Z,25.4100,-80.9640,1.5,10.87,1111122 
ENP,ioos.station.NOAA.NDBC:TPEF1:1,2016-05-07T11:00:00Z,25.4100,-80.9640,1.5,10.74,1111122 
ENP,ioos.station.NOAA.NDBC:TPEF1:1,2016-05-07T12:00:00Z,25.4100,-80.9640,1.5,10.29,1111122 
ENP,ioos.station.NOAA.NDBC:TPEF1:1,2016-05-07T13:00:00Z,25.4100,-80.9640,1.5,9.91,1111122 
ENP,ioos.station.NOAA.NDBC:TPEF1:1,2016-05-07T14:00:00Z,25.4100,-80.9640,1.5,9.4,1111122 
ENP,ioos.station.NOAA.NDBC:TPEF1:1,2016-05-07T15:00:00Z,25.4100,-80.9640,1.5,8.64,1111122 
ENP,ioos.station.NOAA.NDBC:TPEF1:1,2016-05-07T16:00:00Z,25.4100,-80.9640,1.5,8.51,1111122 
ENP,ioos.station.NOAA.NDBC:TPEF1:1,2016-05-07T17:00:00Z,25.4100,-80.9640,1.5,9.84,1111122 
ENP,ioos.station.NOAA.NDBC:TPEF1:1,2016-05-07T18:00:00Z,25.4100,-80.9640,1.5,10.42,1111122 
ENP,ioos.station.NOAA.NDBC:TPEF1:1,2016-05-07T19:00:00Z,25.4100,-80.9640,1.5,11.0,1111122 
ENP,ioos.station.NOAA.NDBC:TPEF1:1,2016-05-07T20:00:00Z,25.4100,-80.9640,1.5,11.32,1111122 
ENP,ioos.station.NOAA.NDBC:TPEF1:1,2016-05-07T21:00:00Z,25.4100,-80.9640,1.5,11.52,1111122 
ENP,ioos.station.NOAA.NDBC:TPEF1:1,2016-05-07T22:00:00Z,25.4100,-80.9640,1.5,11.58,1111122 
ENP,ioos.station.NOAA.NDBC:TPEF1:1,2016-05-07T23:00:00Z,25.4100,-80.9640,1.5,11.65,1111122 
ENP,ioos.station.NOAA.NDBC:TPEF1:1,2016-05-08T00:00:00Z,25.4100,-80.9640,1.5,11.19,1111122 
ENP,ioos.station.NOAA.NDBC:TPEF1:1,2016-05-08T03:00:00Z,25.4100,-80.9640,1.5,9.02,1111122 
ENP,ioos.station.NOAA.NDBC:TPEF1:1,2016-05-08T06:00:00Z,25.4100,-80.9640,1.5,8.22,1111122 
ENP,ioos.station.NOAA.NDBC:TPEF1:1,2016-05-08T07:00:00Z,25.4100,-80.9640,1.5,9.84,1111122 
ENP,ioos.station.NOAA.NDBC:TPEF1:1,2016-05-08T08:00:00Z,25.4100,-80.9640,1.5,10.61,1111122 
ENP,ioos.station.NOAA.NDBC:TPEF1:1,2016-05-08T10:00:00Z,25.4100,-80.9640,1.5,11.65,1111122 
ENP,ioos.station.NOAA.NDBC:TPEF1:1,2016-05-08T11:00:00Z,25.4100,-80.9640,1.5,11.71,1111122 
ENP,ioos.station.NOAA.NDBC:TPEF1:1,2016-05-08T12:00:00Z,25.4100,-80.9640,1.5,11.19,1111122 
ENP,ioos.station.NOAA.NDBC:TPEF1:1,2016-05-08T13:00:00Z,25.4100,-80.9640,1.5,10.55,1111122 
ENP,ioos.station.NOAA.NDBC:TPEF1:1,2016-05-08T14:00:00Z,25.4100,-80.9640,1.5,9.78,1111122 
ENP,ioos.station.NOAA.NDBC:TPEF1:1,2016-05-08T15:00:00Z,25.4100,-80.9640,1.5,8.83,1111122 
ENP,ioos.station.NOAA.NDBC:TPEF1:1,2016-05-08T16:00:00Z,25.4100,-80.9640,1.5,8.21,1111122 
ENP,ioos.station.NOAA.NDBC:TPEF1:1,2016-05-08T17:00:00Z,25.4100,-80.9640,1.5,8.7,1111122 
ENP,ioos.station.NOAA.NDBC:TPEF1:1,2016-05-08T18:00:00Z,25.4100,-80.9640,1.5,10.16,1111122 
ENP,ioos.station.NOAA.NDBC:TPEF1:1,2016-05-08T19:00:00Z,25.4100,-80.9640,1.5,10.94,1111122 
ENP,ioos.station.NOAA.NDBC:TPEF1:1,2016-05-08T20:00:00Z,25.4100,-80.9640,1.5,11.39,1111122 
ENP,ioos.station.NOAA.NDBC:TPEF1:1,2016-05-08T21:00:00Z,25.4100,-80.9640,1.5,12.04,1111122 
ENP,ioos.station.NOAA.NDBC:TPEF1:1,2016-05-08T22:00:00Z,25.4100,-80.9640,1.5,12.49,1111122 
ENP,ioos.station.NOAA.NDBC:TPEF1:1,2016-05-08T23:00:00Z,25.4100,-80.9640,1.5,12.49,1111122 
ENP,ioos.station.NOAA.NDBC:TPEF1:1,2016-05-09T00:00:00Z,25.4100,-80.9640,1.5,11.71,1111122 
ENP,ioos.station.NOAA.NDBC:TPEF1:1,2016-05-09T03:00:00Z,25.4100,-80.9640,1.5,9.08,1111122 
ENP,ioos.station.NOAA.NDBC:TPEF1:1,2016-05-09T06:00:00Z,25.4100,-80.9640,1.5,6.57,1111122 
ENP,ioos.station.NOAA.NDBC:TPEF1:1,2016-05-09T07:00:00Z,25.4100,-80.9640,1.5,7.31,1111122 
ENP,ioos.station.NOAA.NDBC:TPEF1:1,2016-05-09T08:00:00Z,25.4100,-80.9640,1.5,9.4,1111122 
ENP,ioos.station.NOAA.NDBC:TPEF1:1,2016-05-09T09:00:00Z,25.4100,-80.9640,1.5,10.55,1111122 
ENP,ioos.station.NOAA.NDBC:TPEF1:1,2016-05-09T10:00:00Z,25.4100,-80.9640,1.5,11.45,1111122 
ENP,ioos.station.NOAA.NDBC:TPEF1:1,2016-05-09T11:00:00Z,25.4100,-80.9640,1.5,12.04,1111122 
ENP,ioos.station.NOAA.NDBC:TPEF1:1,2016-05-09T12:00:00Z,25.4100,-80.9640,1.5,11.91,1111122 
ENP,ioos.station.NOAA.NDBC:TPEF1:1,2016-05-09T13:00:00Z,25.4100,-80.9640,1.5,10.48,1111122 
ENP,ioos.station.NOAA.NDBC:TPEF1:1,2016-05-09T14:00:00Z,25.4100,-80.9640,1.5,9.59,1111122 
ENP,ioos.station.NOAA.NDBC:TPEF1:1,2016-05-09T15:00:00Z,25.4100,-80.9640,1.5,8.64,1111122 
ENP,ioos.station.NOAA.NDBC:TPEF1:1,2016-05-09T16:00:00Z,25.4100,-80.9640,1.5,7.74,1111122 
ENP,ioos.station.NOAA.NDBC:TPEF1:1,2016-05-09T17:00:00Z,25.4100,-80.9640,1.5,7.17,1111122 
ENP,ioos.station.NOAA.NDBC:TPEF1:1,2016-05-09T18:00:00Z,25.4100,-80.9640,1.5,8.77,1111122 
ENP,ioos.station.NOAA.NDBC:TPEF1:1,2016-05-09T19:00:00Z,25.4100,-80.9640,1.5,10.36,1111122 
ENP,ioos.station.NOAA.NDBC:TPEF1:1,2016-05-09T20:00:00Z,25.4100,-80.9640,1.5,11.06,1111122 
ENP,ioos.station.NOAA.NDBC:TPEF1:1,2016-05-09T21:00:00Z,25.4100,-80.9640,1.5,11.78,1111122 
ENP,ioos.station.NOAA.NDBC:TPEF1:1,2016-05-09T22:00:00Z,25.4100,-80.9640,1.5,12.23,1111122 
ENP,ioos.station.NOAA.NDBC:TPEF1:1,2016-05-09T23:00:00Z,25.4100,-80.9640,1.5,12.43,1111122 
ENP,ioos.station.NOAA.NDBC:TPEF1:1,2016-05-10T00:00:00Z,25.4100,-80.9640,1.5,12.3,1111122 
ENP,ioos.station.NOAA.NDBC:TPEF1:1,2016-05-10T03:00:00Z,25.4100,-80.9640,1.5,9.21,1111122 
ENP,ioos.station.NOAA.NDBC:TPEF1:1,2016-05-10T06:00:00Z,25.4100,-80.9640,1.5,5.79,1111122 
ENP,ioos.station.NOAA.NDBC:TPEF1:1,2016-05-10T07:00:00Z,25.4100,-80.9640,1.5,4.91,1111122 
ENP,ioos.station.NOAA.NDBC:TPEF1:1,2016-05-10T08:00:00Z,25.4100,-80.9640,1.5,6.4,1111122 
ENP,ioos.station.NOAA.NDBC:TPEF1:1,2016-05-10T10:00:00Z,25.4100,-80.9640,1.5,10.94,1111122 
ENP,ioos.station.NOAA.NDBC:TPEF1:1,2016-05-10T11:00:00Z,25.4100,-80.9640,1.5,11.39,1111122 
ENP,ioos.station.NOAA.NDBC:TPEF1:1,2016-05-10T12:00:00Z,25.4100,-80.9640,1.5,11.65,1111122 
ENP,ioos.station.NOAA.NDBC:TPEF1:1,2016-05-10T13:00:00Z,25.4100,-80.9640,1.5,11.13,1111122 
ENP,ioos.station.NOAA.NDBC:TPEF1:1,2016-05-10T14:00:00Z,25.4100,-80.9640,1.5,9.4,1111122 
ENP,ioos.station.NOAA.NDBC:TPEF1:1,2016-05-10T15:00:00Z,25.4100,-80.9640,1.5,8.45,1111122 
ENP,ioos.station.NOAA.NDBC:TPEF1:1,2016-05-10T16:00:00Z,25.4100,-80.9640,1.5,7.53,1111122 
ENP,ioos.station.NOAA.NDBC:TPEF1:1,2016-05-10T17:00:00Z,25.4100,-80.9640,1.5,6.48,1111122 
ENP,ioos.station.NOAA.NDBC:TPEF1:1,2016-05-10T18:00:00Z,25.4100,-80.9640,1.5,7.67,1111122 
ENP,ioos.station.NOAA.NDBC:TPEF1:1,2016-05-10T19:00:00Z,25.4100,-80.9640,1.5,10.74,1111122 
ENP,ioos.station.NOAA.NDBC:TPEF1:1,2016-05-10T20:00:00Z,25.4100,-80.9640,1.5,11.39,1111122 
ENP,ioos.station.NOAA.NDBC:TPEF1:1,2016-05-10T21:00:00Z,25.4100,-80.9640,1.5,11.58,1111122 
ENP,ioos.station.NOAA.NDBC:TPEF1:1,2016-05-10T22:00:00Z,25.4100,-80.9640,1.5,11.65,1111122 
ENP,ioos.station.NOAA.NDBC:TPEF1:1,2016-05-10T23:00:00Z,25.4100,-80.9640,1.5,11.65,1111122 
ENP,ioos.station.NOAA.NDBC:TPEF1:1,2016-05-11T00:00:00Z,25.4100,-80.9640,1.5,11.65,1111122 
ENP,ioos.station.NOAA.NDBC:TPEF1:1,2016-05-11T03:00:00Z,25.4100,-80.9640,1.5,10.94,1111122 
ENP,ioos.station.NOAA.NDBC:TPEF1:1,2016-05-11T05:00:00Z,25.4100,-80.9640,1.5,7.39,1111122 
ENP,ioos.station.NOAA.NDBC:TPEF1:1,2016-05-11T06:00:00Z,25.4100,-80.9640,1.5,5.95,1111122 
ENP,ioos.station.NOAA.NDBC:TPEF1:1,2016-05-11T07:00:00Z,25.4100,-80.9640,1.5,4.89,1111122 
ENP,ioos.station.NOAA.NDBC:TPEF1:1,2016-05-11T08:00:00Z,25.4100,-80.9640,1.5,4.52,1111122 
ENP,ioos.station.NOAA.NDBC:TPEF1:1,2016-05-11T09:00:00Z,25.4100,-80.9640,1.5,5.91,1111122 
ENP,ioos.station.NOAA.NDBC:TPEF1:1,2016-05-11T10:00:00Z,25.4100,-80.9640,1.5,9.4,1111122 
ENP,ioos.station.NOAA.NDBC:TPEF1:1,2016-05-11T11:00:00Z,25.4100,-80.9640,1.5,10.48,1111122 
ENP,ioos.station.NOAA.NDBC:TPEF1:1,2016-05-11T12:00:00Z,25.4100,-80.9640,1.5,10.68,1111122 
ENP,ioos.station.NOAA.NDBC:TPEF1:1,2016-05-11T15:00:00Z,25.4100,-80.9640,1.5,8.83,1111122 
ENP,ioos.station.NOAA.NDBC:TPEF1:1,2016-05-11T16:00:00Z,25.4100,-80.9640,1.5,7.27,1111122 
ENP,ioos.station.NOAA.NDBC:TPEF1:1,2016-05-11T19:00:00Z,25.4100,-80.9640,1.5,5.95,1111122 
ENP,ioos.station.NOAA.NDBC:TPEF1:1,2016-05-11T20:00:00Z,25.4100,-80.9640,1.5,9.21,1111122 
ENP,ioos.station.NOAA.NDBC:TPEF1:1,2016-05-11T21:00:00Z,25.4100,-80.9640,1.5,9.91,1111122 
ENP,ioos.station.NOAA.NDBC:TPEF1:1,2016-05-11T22:00:00Z,25.4100,-80.9640,1.5,10.1,1111122 
ENP,ioos.station.NOAA.NDBC:TPEF1:1,2016-05-11T23:00:00Z,25.4100,-80.9640,1.5,10.16,1111122 
ENP,ioos.station.NOAA.NDBC:TPEF1:1,2016-05-12T00:00:00Z,25.4100,-80.9640,1.5,10.1,1111122 
ENP,ioos.station.NOAA.NDBC:TPEF1:1,2016-05-12T03:00:00Z,25.4100,-80.9640,1.5,10.1,1111122 
ENP,ioos.station.NOAA.NDBC:TPEF1:1,2016-05-12T06:00:00Z,25.4100,-80.9640,1.5,6.06,1111122 
ENP,ioos.station.NOAA.NDBC:TPEF1:1,2016-05-12T07:00:00Z,25.4100,-80.9640,1.5,5.05,1111122 
ENP,ioos.station.NOAA.NDBC:TPEF1:1,2016-05-12T08:00:00Z,25.4100,-80.9640,1.5,4.27,1111122 
ENP,ioos.station.NOAA.NDBC:TPEF1:1,2016-05-12T10:00:00Z,25.4100,-80.9640,1.5,7.9,1111122 
ENP,ioos.station.NOAA.NDBC:TPEF1:1,2016-05-12T11:00:00Z,25.4100,-80.9640,1.5,9.08,1111122 
ENP,ioos.station.NOAA.NDBC:TPEF1:1,2016-05-12T12:00:00Z,25.4100,-80.9640,1.5,9.15,1111122 
ENP,ioos.station.NOAA.NDBC:TPEF1:1,2016-05-12T13:00:00Z,25.4100,-80.9640,1.5,9.15,1111122 
ENP,ioos.station.NOAA.NDBC:TPEF1:1,2016-05-12T14:00:00Z,25.4100,-80.9640,1.5,9.15,1111122 
ENP,ioos.station.NOAA.NDBC:TPEF1:1,2016-05-12T15:00:00Z,25.4100,-80.9640,1.5,9.15,1111122 
ENP,ioos.station.NOAA.NDBC:TPEF1:1,2016-05-12T16:00:00Z,25.4100,-80.9640,1.5,9.08,1111122 
ENP,ioos.station.NOAA.NDBC:TPEF1:1,2016-05-12T17:00:00Z,25.4100,-80.9640,1.5,8.89,1111122 
ENP,ioos.station.NOAA.NDBC:TPEF1:1,2016-05-12T18:00:00Z,25.4100,-80.9640,1.5,8.04,1111122 
ENP,ioos.station.NOAA.NDBC:TPEF1:1,2016-05-12T19:00:00Z,25.4100,-80.9640,1.5,6.94,1111122 
ENP,ioos.station.NOAA.NDBC:TPEF1:1,2016-05-12T20:00:00Z,25.4100,-80.9640,1.5,7.18,1111122 
ENP,ioos.station.NOAA.NDBC:TPEF1:1,2016-05-12T21:00:00Z,25.4100,-80.9640,1.5,8.7,1111122 
ENP,ioos.station.NOAA.NDBC:TPEF1:1,2016-05-12T22:00:00Z,25.4100,-80.9640,1.5,8.89,1111122 
ENP,ioos.station.NOAA.NDBC:TPEF1:1,2016-05-12T23:00:00Z,25.4100,-80.9640,1.5,8.89,1111122 
ENP,ioos.station.NOAA.NDBC:TPEF1:1,2016-05-13T00:00:00Z,25.4100,-80.9640,1.5,8.83,1111122 
ENP,ioos.station.NOAA.NDBC:TPEF1:1,2016-05-13T03:00:00Z,25.4100,-80.9640,1.5,8.64,1111122 
ENP,ioos.station.NOAA.NDBC:TPEF1:1,2016-05-13T05:00:00Z,25.4100,-80.9640,1.5,8.64,1111122 
ENP,ioos.station.NOAA.NDBC:TPEF1:1,2016-05-13T06:00:00Z,25.4100,-80.9640,1.5,8.32,1111122 
ENP,ioos.station.NOAA.NDBC:TPEF1:1,2016-05-13T07:00:00Z,25.4100,-80.9640,1.5,6.96,1111122 
ENP,ioos.station.NOAA.NDBC:TPEF1:1,2016-05-13T08:00:00Z,25.4100,-80.9640,1.5,5.25,1111122 
ENP,ioos.station.NOAA.NDBC:TPEF1:1,2016-05-13T10:00:00Z,25.4100,-80.9640,1.5,5.18,1111122 
ENP,ioos.station.NOAA.NDBC:TPEF1:1,2016-05-13T11:00:00Z,25.4100,-80.9640,1.5,7.25,1111122 
ENP,ioos.station.NOAA.NDBC:TPEF1:1,2016-05-13T12:00:00Z,25.4100,-80.9640,1.5,7.27,1111122 
ENP,ioos.station.NOAA.NDBC:TPEF1:1,2016-05-13T13:00:00Z,25.4100,-80.9640,1.5,7.28,1111122 
ENP,ioos.station.NOAA.NDBC:TPEF1:1,2016-05-13T14:00:00Z,25.4100,-80.9640,1.5,7.31,1111122 
ENP,ioos.station.NOAA.NDBC:TPEF1:1,2016-05-13T15:00:00Z,25.4100,-80.9640,1.5,7.35,1111122 
ENP,ioos.station.NOAA.NDBC:TPEF1:1,2016-05-13T17:00:00Z,25.4100,-80.9640,1.5,7.31,1111122 
ENP,ioos.station.NOAA.NDBC:TPEF1:1,2016-05-13T19:00:00Z,25.4100,-80.9640,1.5,6.76,1111122 
ENP,ioos.station.NOAA.NDBC:TPEF1:1,2016-05-13T20:00:00Z,25.4100,-80.9640,1.5,6.75,1111122 
ENP,ioos.station.NOAA.NDBC:TPEF1:1,2016-05-13T21:00:00Z,25.4100,-80.9640,1.5,6.7,1111122 
ENP,ioos.station.NOAA.NDBC:TPEF1:1,2016-05-13T22:00:00Z,25.4100,-80.9640,1.5,6.15,1111122 
ENP,ioos.station.NOAA.NDBC:TPEF1:1,2016-05-13T23:00:00Z,25.4100,-80.9640,1.5,6.02,1111122 
ENP,ioos.station.NOAA.NDBC:TPEF1:1,2016-05-14T00:00:00Z,25.4100,-80.9640,1.5,6.02,1111122 
ENP,ioos.station.NOAA.NDBC:TPEF1:1,2016-05-14T03:00:00Z,25.4100,-80.9640,1.5,5.86,1111122 
ENP,ioos.station.NOAA.NDBC:TPEF1:1,2016-05-14T06:00:00Z,25.4100,-80.9640,1.5,5.86,1111122 
ENP,ioos.station.NOAA.NDBC:TPEF1:1,2016-05-14T07:00:00Z,25.4100,-80.9640,1.5,5.86,1111122 
ENP,ioos.station.NOAA.NDBC:TPEF1:1,2016-05-14T08:00:00Z,25.4100,-80.9640,1.5,5.86,1111122 
ENP,ioos.station.NOAA.NDBC:TPEF1:1,2016-05-14T09:00:00Z,25.4100,-80.9640,1.5,5.86,1111122 
ENP,ioos.station.NOAA.NDBC:TPEF1:1,2016-05-14T10:00:00Z,25.4100,-80.9640,1.5,5.57,1111122 